Hourly Data Report for March 01, 2012

All times are specified in Local Standard Time (LST). Add 1 hour to adjust for Daylight Saving Time where and when it is observed.

MIRAMICHI RCS
NEW BRUNSWICK

47°00'34.000" N
65°27'54.000" W
33.00 m
8100989
71744
ACQ

Download Data

Hourly Data (March 2012)
Hourly Data Report for March 1, 2012
TIME Temp Definition
°C
Dew Point Temp Definition
°C
Rel Hum Definition
%
Wind Dir Definition
10's deg

Wind Spd Definition
km/h
Visibility Definition
km
Stn Press Definition
kPa
Hmdx Definition


Wind Chill Definition


Weather Definition


00:00 -13.7 -18.0 70 35 4   102.20   -16 LegendNANA
01:00 -19.0 -21.9 78 35 2   102.22   -21 LegendNANA
02:00 -15.3 -18.6 76 35 9   102.20   -21 LegendNANA
03:00 -16.1 -19.3 76 36 6   102.15   -21 LegendNANA
04:00 -20.8 -23.0 82   0   102.18     LegendNANA
05:00 -21.3 -23.3 84 35 6   102.20   -27 LegendNANA
06:00 -21.2 -23.5 82   0   102.18     LegendNANA
07:00 -21.4 -23.7 82 8 6   102.14   -27 LegendNANA
08:00 -14.6 -17.4 79 4 9   102.14   -20 LegendNANA
09:00 -12.0 -16.1 71 5 11   102.17   -18 LegendNANA
10:00 -10.3 -14.8 70 6 22   102.11   -19 LegendNANA
11:00 -10.4 -14.8 70 6 28   102.12   -20 LegendNANA
12:00 -10.2 -14.8 69 6 28   102.07   -19 LegendNANA
13:00 -10.2 -14.1 73 6 28   102.02   -19 LegendNANA
14:00 -10.4 -14.9 70 6 26   101.98   -19 LegendNANA
15:00 -10.3 -15.3 67 6 24   101.96   -19 LegendNANA
16:00 -10.6 -15.0 70 6 24   101.94   -19 LegendNANA
17:00 -10.8 -14.9 72 6 20   101.90   -19 LegendNANA
18:00 -11.2 -14.4 77 6 19   101.95   -19 LegendNANA
19:00
20:00 -11.5 -13.8 83 4 11   101.98   -17 LegendNANA
21:00 -11.6 -13.9 83 3 11   101.97   -18 LegendNANA
22:00 -11.9 -14.4 82 2 6   101.98   -16 LegendNANA
23:00 -12.0 -14.4 82 3 7   101.98   -16 LegendNANA

Notes on Data Quality.

Legend

  • E = Estimated
  • M = Missing
  • NA = Not Available
Date modified: